Location: S�tio Afonso Gruber
(26.1760°S, 49.5250°W)
Time: 00:10:42
(UTC+00:00)

Intelsat 5-3 Rocket - Pass Details

Date: 08 October 2020
Orbit: 281 x 6111 km, 23.6° (Epoch: 22 October)

Event Time Altitude Azimuth Distance (km) Brightness Sun altitude
Exits shadow 07:14:59 24° 275° (W) 6,581 7.1 -21.5°
Maximum altitude 07:37:17 51° 333° (NNW) 6,659 7.4 -16.8°
Drops below altitude 10° 08:15:09 10° 40° (NE) 8,611 8.8 -8.5°
Sets 08:21:38 0° 45° (NE) 9,038 9.0 -7.1°
